Regional Weather Roundup
Issued by NWS

Home | Current Version | Previous Version | Text Only | Print | Product List | Glossary On
Versions: 1 2 3 4 5 6 7 8 9 10 11 12 13 14 15 16 17 18 19 20 21 22 23 24 25 26 27 28 29 30 31 32 33 34 35 36 37 38 39 40 41 42 43 44 45 46 47 48 49 50
000
ASUS42 KKEY 300810
RWRKEY

FLORIDA REGIONAL WEATHER ROUNDUP FOR THE FLORIDA KEYS
NATIONAL WEATHER SERVICE KEY WEST FLORIDA
400 AM EDT SAT MAY 30 2015

...SOUTH FLORIDA AND THE KEYS...

CITY           SKY/WX    TMP DP  RH WIND       PRES   REMARKS
FORT MYERS     CLEAR     72  70  93 E3        30.02F
SW REGIONAL AP CLEAR     71  68  90 E5        30.03S FOG
NAPLES         CLEAR     74  69  85 E7        30.01F
MIAMI          MOCLDY    78  70  76 E9        30.01F
WEST KENDALL   PTCLDY    75  70  84 E6        30.01F
HOMESTEAD      CLEAR     77  69  77 E5        30.00F
MARATHON       PTCLDY    80  72  76 E7        29.99F
BOCA CHICA NAS CLEAR     79  71  76 E9        30.00S
KEY WEST INTL  PTCLDY    79  71  76 E9        30.00S

...INTERNATIONAL WEATHER...

CITY           SKY/WX    TMP DP  RH WIND       PRES   REMARKS
NASSAU BAHAMAS PTCLDY    75  68  78 CALM      30.01F
CANCUN MEXICO  CLEAR     79  73  83 NE7       29.94F
COZUMEL MEXICO PTCLDY    72  72 100 CALM      29.93F

ADJACENT COASTAL WATERS...

STATION/POSITION TIME  SKY/WX   TEMP    WIND        PRES    WAVE
                                AIR SEA DIR/SP/G            HT/PER
                 (UTC)          (F)     (DEG/KT/KT) (MB)    (FT/S)
PULASKI SHOAL LI 0700            80     140/ 10/ 11 1015.9F
SAND KEY         0750            80     110/ 11/ 13 1015.6F
SOMBRERO KEY     0800            80      90/ 13/ 14 1016.1F
LONG KEY         0800            80 81  110/ 11/ 13 1016.6F
MOLASSES REEF    0800            79 81  100/ 12/ 14 1015.8F
FOWEY ROCKS      NOT AVBL

$$



USA.gov is the U.S. government's official web portal to all federal, state and local government web resources and services.